| time (UTC) | temp C | wind direction | speed KPH | gust KPH | rain 1hr cm | rain 24hr cm | rain mn cm | humidity % | barometer mb |
| 20260906052404 | 18 | 82 | 0.0 | 0.0 | 0.00 | 0.00 | 0.00 | 92 | 1017.4 |
| 20260906051901 | 18 | 81 | 0.0 | 0.0 | 0.00 | 0.00 | 0.00 | 92 | 1017.3 |
| 20260906051400 | 18 | 82 | 0.0 | 0.0 | 0.00 | 0.00 | 0.00 | 92 | 1017.4 |
| 20260906050856 | 18 | 81 | 0.0 | 0.0 | 0.00 | 0.00 | 0.00 | 92 | 1017.5 |
| 20260906050350 | 18 | 81 | 0.0 | 0.0 | 0.00 | 0.00 | 0.00 | 92 | 1017.5 |
| 20260906045850 | 18 | 81 | 0.0 | 0.0 | 0.00 | 0.00 | 0.00 | 92 | 1017.8 |
| 20260906045349 | 18 | 82 | 0.0 | 0.0 | 0.00 | 0.00 | 0.00 | 92 | 1017.4 |
| 20260906044846 | 18 | 89 | 0.0 | 0.0 | 0.00 | 0.00 | 0.00 | 92 | 1017.7 |
| 20260906044345 | 18 | 82 | 0.0 | 0.0 | 0.00 | 0.00 | 0.00 | 92 | 1017.7 |
| 20260906043841 | 18 | 82 | 0.0 | 0.0 | 0.00 | 0.00 | 0.00 | 92 | 1017.5 |
| 20260906043337 | 18 | 81 | 0.0 | 0.0 | 0.00 | 0.00 | 0.00 | 92 | 1017.4 |
| 20260906042832 | 18 | 90 | 0.0 | 0.0 | 0.00 | 0.00 | 0.00 | 92 | 1017.5 |
| 20260906042331 | 18 | 83 | 0.0 | 0.0 | 0.00 | 0.00 | 0.00 | 92 | 1017.4 |
| 20260906041827 | 19 | 81 | 0.0 | 0.0 | 0.00 | 0.00 | 0.00 | 92 | 1017.4 |
| 20260906041322 | 19 | 91 | 0.0 | 0.0 | 0.00 | 0.00 | 0.00 | 92 | 1017.3 |
| 20260906040822 | 19 | 82 | 0.0 | 0.0 | 0.00 | 0.00 | 0.00 | 92 | 1017.5 |
| 20260906040317 | 19 | 69 | 0.0 | 0.0 | 0.00 | 0.00 | 0.00 | 92 | 1017.2 |
| 20260906035813 | 19 | 82 | 0.0 | 0.0 | 0.00 | 1.37 | 1.37 | 92 | 1017.4 |
| 20260906035308 | 19 | 91 | 0.0 | 0.0 | 0.00 | 1.37 | 1.37 | 92 | 1017.4 |
| 20260906034804 | 19 | 89 | 0.0 | 0.0 | 0.00 | 1.37 | 1.37 | 92 | 1017.5 |
| 20260906034303 | 19 | 80 | 0.0 | 0.0 | 0.00 | 1.37 | 1.37 | 92 | 1017.9 |
| 20260906033759 | 19 | 91 | 0.0 | 0.0 | 0.00 | 1.37 | 1.37 | 92 | 1017.7 |
| 20260906033258 | 19 | 81 | 0.0 | 0.0 | 0.00 | 1.37 | 1.37 | 92 | 1018.1 |
| 20260906032755 | 19 | 81 | 0.0 | 0.0 | 0.00 | 1.37 | 1.37 | 92 | 1018.0 |
| 20260906032255 | 19 | 81 | 0.0 | 0.0 | 0.00 | 1.37 | 1.37 | 92 | 1018.2 |
| 20260906031751 | 19 | 81 | 0.0 | 0.0 | 0.00 | 1.37 | 1.37 | 92 | 1017.8 |
| 20260906031247 | 19 | 82 | 0.0 | 0.0 | 0.00 | 1.37 | 1.37 | 92 | 1018.3 |
| 20260906030746 | 19 | 81 | 0.0 | 0.0 | 0.00 | 1.37 | 1.37 | 92 | 1018.1 |
| 20260906030241 | 19 | 81 | 0.0 | 0.0 | 0.00 | 1.37 | 1.37 | 92 | 1018.4 |
| 20260906025740 | 19 | 81 | 0.0 | 0.0 | 0.00 | 1.37 | 1.37 | 92 | 1018.0 |
| 20260906025235 | 19 | 88 | 0.0 | 0.0 | 0.00 | 1.37 | 1.37 | 92 | 1017.9 |
| 20260906024734 | 19 | 81 | 0.0 | 0.0 | 0.00 | 1.37 | 1.37 | 92 | 1018.1 |
| 20260906024233 | 19 | 92 | 0.0 | 0.0 | 0.00 | 1.37 | 1.37 | 92 | 1017.9 |
| 20260906023729 | 19 | 81 | 0.0 | 0.0 | 0.00 | 1.37 | 1.37 | 92 | 1017.8 |
| 20260906023225 | 20 | 100 | 0.0 | 0.0 | 0.00 | 1.37 | 1.37 | 92 | 1018.2 |
| 20260906022720 | 20 | 80 | 0.0 | 0.0 | 0.00 | 1.37 | 1.37 | 92 | 1017.5 |
| 20260906022215 | 20 | 82 | 0.0 | 0.0 | 0.00 | 1.37 | 1.37 | 92 | 1017.5 |
| 20260906021711 | 20 | 81 | 0.0 | 0.0 | 0.00 | 1.37 | 1.37 | 92 | 1017.4 |
| 20260906021210 | 20 | 92 | 0.0 | 0.0 | 0.00 | 1.37 | 1.37 | 92 | 1017.4 |
| 20260906020705 | 20 | 81 | 0.0 | 0.0 | 0.00 | 1.37 | 1.37 | 92 | 1017.4 |
| 20260906020200 | 20 | 89 | 0.0 | 0.0 | 0.00 | 1.37 | 1.37 | 92 | 1017.4 |
| 20260906015700 | 20 | 90 | 0.0 | 0.0 | 0.00 | 1.37 | 1.37 | 92 | 1017.4 |
| 20260906015158 | 20 | 113 | 0.0 | 0.0 | 0.00 | 1.37 | 1.37 | 92 | 1017.1 |
| 20260906014658 | 20 | 76 | 0.0 | 0.0 | 0.00 | 1.37 | 1.37 | 92 | 1017.2 |
| 20260906014154 | 20 | 81 | 0.0 | 0.0 | 0.00 | 1.37 | 1.37 | 92 | 1017.2 |
| 20260906013650 | 20 | 81 | 0.0 | 0.0 | 0.00 | 1.37 | 1.37 | 92 | 1017.7 |
| 20260906013145 | 20 | 82 | 0.0 | 0.0 | 0.00 | 1.37 | 1.37 | 92 | 1017.5 |
| 20260906012646 | 20 | 81 | 0.0 | 0.0 | 0.00 | 1.37 | 1.37 | 92 | 1017.3 |
| 20260906012145 | 20 | 81 | 0.0 | 0.0 | 0.00 | 1.37 | 1.37 | 92 | 1017.2 |
| 20260906011641 | 20 | 80 | 0.0 | 0.0 | 0.00 | 1.37 | 1.37 | 92 | 1017.3 |
| 20260906011136 | 20 | 90 | 0.0 | 0.0 | 0.00 | 1.37 | 1.37 | 92 | 1017.2 |
| 20260906010631 | 20 | 82 | 0.0 | 0.0 | 0.00 | 1.37 | 1.37 | 92 | 1017.3 |
| 20260906010128 | 20 | 82 | 0.0 | 0.0 | 0.00 | 1.37 | 1.37 | 92 | 1017.2 |
| 20260906005627 | 20 | 82 | 0.0 | 0.0 | 0.00 | 1.37 | 1.37 | 92 | 1017.3 |
| 20260906005126 | 20 | 84 | 0.0 | 0.0 | 0.00 | 1.37 | 1.37 | 92 | 1017.3 |
| 20260906004626 | 21 | 81 | 0.0 | 0.0 | 0.00 | 1.37 | 1.37 | 92 | 1017.1 |
| 20260906004121 | 21 | 81 | 0.0 | 0.0 | 0.00 | 1.37 | 1.37 | 92 | 1016.9 |
| 20260906003616 | 21 | 81 | 0.0 | 0.0 | 0.00 | 1.37 | 1.37 | 92 | 1017.0 |
| 20260906003112 | 21 | 80 | 0.0 | 0.0 | 0.00 | 1.37 | 1.37 | 92 | 1016.9 |
| 20260906002612 | 21 | 92 | 0.0 | 0.0 | 0.00 | 1.37 | 1.37 | 92 | 1017.0 |
| 20260906002107 | 21 | 81 | 0.0 | 0.0 | 0.00 | 1.37 | 1.37 | 92 | 1016.7 |
| 20260906001603 | 21 | 89 | 0.0 | 0.0 | 0.00 | 1.37 | 1.37 | 92 | 1016.9 |
| 20260906001102 | 21 | 83 | 0.0 | 0.0 | 0.00 | 1.37 | 1.37 | 92 | 1016.8 |
| 20260906000559 | 21 | 84 | 0.0 | 0.0 | 0.00 | 1.37 | 1.37 | 92 | 1016.7 |
| 20260906000053 | 21 | 75 | 0.0 | 0.0 | 0.00 | 1.37 | 1.37 | 92 | 1016.8 |
| 20260905235553 | 21 | 72 | 0.0 | 0.0 | 0.00 | 1.37 | 1.37 | 92 | 1016.7 |
| 20260905235048 | 22 | 98 | 0.0 | 0.0 | 0.00 | 1.37 | 1.37 | 92 | 1016.7 |
| 20260905234543 | 22 | 83 | 0.0 | 0.0 | 0.00 | 1.37 | 1.37 | 92 | 1016.4 |
| 20260905234039 | 22 | 83 | 0.0 | 0.0 | 0.00 | 1.37 | 1.37 | 92 | 1016.5 |
| 20260905233538 | 22 | 83 | 0.0 | 0.0 | 0.00 | 1.37 | 1.37 | 92 | 1016.6 |
| 20260905233038 | 22 | 89 | 0.0 | 0.0 | 0.00 | 1.37 | 1.37 | 92 | 1016.6 |
| 20260905232533 | 22 | 89 | 0.0 | 0.0 | 0.00 | 1.37 | 1.37 | 92 | 1016.7 |
| 20260905232029 | 22 | 89 | 0.0 | 0.0 | 0.00 | 1.37 | 1.37 | 92 | 1016.5 |
| 20260905231524 | 22 | 90 | 0.0 | 0.0 | 0.00 | 1.37 | 1.37 | 92 | 1016.3 |
| 20260905231021 | 22 | 89 | 0.0 | 0.0 | 0.00 | 1.37 | 1.37 | 92 | 1016.3 |
| 20260905230520 | 22 | 99 | 0.0 | 0.0 | 0.00 | 1.37 | 1.37 | 92 | 1016.1 |
| 20260905230018 | 22 | 90 | 0.0 | 0.0 | 0.00 | 1.37 | 1.37 | 92 | 1016.3 |
| 20260905225513 | 22 | 90 | 0.0 | 0.0 | 0.00 | 1.37 | 1.37 | 92 | 1015.8 |
| 20260905225008 | 22 | 90 | 0.0 | 0.0 | 0.00 | 1.37 | 1.37 | 92 | 1015.9 |
| 20260905224503 | 23 | 87 | 0.0 | 0.0 | 0.00 | 1.37 | 1.37 | 92 | 1016.1 |
| 20260905224002 | 23 | 94 | 0.0 | 0.0 | 0.00 | 1.37 | 1.37 | 92 | 1016.4 |
| 20260905223500 | 23 | 82 | 0.0 | 0.0 | 0.00 | 1.37 | 1.37 | 92 | 1016.4 |
| 20260905222955 | 23 | 112 | 0.0 | 0.0 | 0.00 | 1.37 | 1.37 | 91 | 1016.4 |
| 20260905222455 | 23 | 62 | 0.0 | 0.0 | 0.00 | 1.37 | 1.37 | 91 | 1016.3 |
| 20260905221950 | 23 | 81 | 0.0 | 0.0 | 0.00 | 1.37 | 1.37 | 90 | 1016.4 |
| 20260905221447 | 24 | 42 | 0.0 | 0.0 | 0.00 | 1.37 | 1.37 | 88 | 1016.3 |
| 20260905220943 | 25 | 72 | 0.0 | 0.0 | 0.00 | 1.37 | 1.37 | 86 | 1016.5 |
| 20260905220439 | 25 | 80 | 0.0 | 0.0 | 0.00 | 1.37 | 1.37 | 85 | 1016.5 |
| 20260905215938 | 25 | 90 | 0.0 | 0.0 | 0.00 | 1.37 | 1.37 | 83 | 1016.5 |
| 20260905215433 | 25 | 60 | 0.0 | 0.0 | 0.00 | 1.37 | 1.37 | 84 | 1016.6 |
| 20260905214930 | 25 | 85 | 0.0 | 0.0 | 0.00 | 1.37 | 1.37 | 85 | 1016.6 |
| 20260905214426 | 26 | 38 | 1.6 | 1.6 | 0.00 | 1.37 | 1.37 | 78 | 1016.6 |
| 20260905213925 | 25 | 66 | 0.0 | 1.6 | 0.00 | 1.37 | 1.37 | 76 | 1016.6 |
| 20260905213422 | 25 | 38 | 0.0 | 1.6 | 0.00 | 1.37 | 1.37 | 85 | 1016.4 |
| 20260905212917 | 25 | 76 | 0.0 | 1.6 | 0.00 | 1.37 | 1.37 | 82 | 1016.6 |
| 20260905212412 | 26 | 84 | 0.0 | 0.0 | 0.00 | 1.37 | 1.37 | 83 | 1016.6 |
| 20260905211911 | 25 | 83 | 0.0 | 0.0 | 0.00 | 1.37 | 1.37 | 84 | 1016.8 |
| 20260905211406 | 26 | 113 | 0.0 | 1.6 | 0.00 | 1.37 | 1.37 | 84 | 1017.0 |
| 20260905210903 | 25 | 123 | 0.0 | 1.6 | 0.00 | 1.37 | 1.37 | 78 | 1017.0 |
| 20260905210402 | 25 | 49 | 0.0 | 0.0 | 0.00 | 1.37 | 1.37 | 86 | 1017.0 |
| 20260905205902 | 25 | 44 | 1.6 | 3.2 | 0.00 | 1.37 | 1.37 | 84 | 1017.1 |
| 20260905205356 | 25 | 85 | 0.0 | 0.0 | 0.00 | 1.37 | 1.37 | 86 | 1017.0 |
| 20260905204855 | 25 | 106 | 0.0 | 0.0 | 0.00 | 1.37 | 1.37 | 85 | 1017.1 |
| 20260905204352 | 25 | 282 | 1.6 | 3.2 | 0.00 | 1.37 | 1.37 | 81 | 1017.2 |
| 20260905203850 | 25 | 99 | 0.0 | 0.0 | 0.00 | 1.37 | 1.37 | 86 | 1016.9 |
| 20260905203347 | 24 | 98 | 0.0 | 0.0 | 0.00 | 1.37 | 1.37 | 83 | 1017.1 |
| 20260905202843 | 23 | 73 | 0.0 | 0.0 | 0.00 | 1.37 | 1.37 | 90 | 1017.2 |
| 20260905202342 | 22 | 39 | 0.0 | 4.8 | 0.00 | 1.37 | 1.37 | 90 | 1017.3 |
| 20260905201839 | 22 | 130 | 0.0 | 0.0 | 0.00 | 1.37 | 1.37 | 92 | 1017.5 |
| 20260905201334 | 22 | 233 | 0.0 | 0.0 | 0.00 | 1.37 | 1.37 | 92 | 1017.7 |
| 20260905200833 | 21 | 54 | 0.0 | 0.0 | 0.00 | 1.37 | 1.37 | 92 | 1017.5 |
| 20260905200330 | 22 | 19 | 0.0 | 3.2 | 0.00 | 1.37 | 1.37 | 92 | 1017.5 |
| 20260905195827 | 22 | 46 | 0.0 | 0.0 | 0.00 | 1.37 | 1.37 | 92 | 1017.5 |
| 20260905195323 | 22 | 0 | 0.0 | 0.0 | 0.00 | 1.37 | 1.37 | 92 | 1017.7 |
| 20260905194819 | 22 | 86 | 0.0 | 0.0 | 0.00 | 1.37 | 1.37 | 92 | 1017.5 |
| 20260905194318 | 21 | 25 | 0.0 | 0.0 | 0.00 | 1.37 | 1.37 | 92 | 1017.7 |
| 20260905193818 | 21 | 1 | 0.0 | 3.2 | 0.00 | 1.37 | 1.37 | 92 | 1017.5 |
| 20260905193313 | 21 | 49 | 0.0 | 0.0 | 0.00 | 1.37 | 1.37 | 92 | 1017.4 |
| 20260905192808 | 21 | 87 | 0.0 | 0.0 | 0.00 | 1.37 | 1.37 | 92 | 1017.4 |
| 20260905192306 | 21 | 54 | 0.0 | 0.0 | 0.00 | 1.37 | 1.37 | 92 | 1017.7 |
| 20260905191803 | 21 | 42 | 0.0 | 3.2 | 0.00 | 1.37 | 1.37 | 92 | 1017.8 |
| 20260905191302 | 21 | 94 | 0.0 | 0.0 | 0.00 | 1.37 | 1.37 | 92 | 1017.5 |
| 20260905190801 | 21 | 29 | 0.0 | 0.0 | 0.00 | 1.37 | 1.37 | 92 | 1017.7 |
| 20260905190255 | 20 | 76 | 0.0 | 0.0 | 0.00 | 1.37 | 1.37 | 92 | 1017.7 |
| 20260905185754 | 20 | 95 | 0.0 | 0.0 | 0.00 | 1.37 | 1.37 | 92 | 1017.7 |
| 20260905185249 | 20 | 93 | 0.0 | 0.0 | 0.00 | 1.37 | 1.37 | 92 | 1017.9 |
| 20260905184748 | 20 | 117 | 0.0 | 0.0 | 0.00 | 1.37 | 1.37 | 92 | 1018.3 |
| 20260905184247 | 20 | 72 | 0.0 | 0.0 | 0.00 | 1.37 | 1.37 | 92 | 1018.4 |
| 20260905183747 | 20 | 45 | 0.0 | 3.2 | 0.00 | 1.37 | 1.37 | 92 | 1018.4 |
| 20260905183243 | 21 | 315 | 6.4 | 11.3 | 0.00 | 1.37 | 1.37 | 92 | 1018.2 |
| 20260905182742 | 21 | 76 | 0.0 | 0.0 | 0.13 | 1.37 | 1.37 | 92 | 1018.1 |
| 20260905182242 | 21 | 79 | 0.0 | 0.0 | 0.30 | 1.37 | 1.37 | 92 | 1018.5 |
| 20260905181737 | 21 | 84 | 0.0 | 0.0 | 0.18 | 1.35 | 1.35 | 92 | 1018.7 |
| 20260905181236 | 21 | 42 | 0.0 | 0.0 | 0.13 | 1.32 | 1.32 | 92 | 1019.0 |
| 20260905180731 | 21 | 79 | 0.0 | 0.0 | 1.37 | 1.32 | 1.32 | 92 | 1018.8 |
| 20260905180227 | 21 | 195 | 0.0 | 0.0 | 3.00 | 1.24 | 1.24 | 92 | 1018.8 |
| 20260905175726 | 22 | 190 | 3.2 | 9.7 | 5.23 | 1.07 | 1.07 | 90 | 1019.1 |
| 20260905175221 | 25 | 73 | 0.0 | 8.0 | 1.50 | 0.43 | 0.43 | 87 | 1018.7 |
| 20260905174716 | 27 | 57 | 0.0 | 3.2 | 0.00 | 0.18 | 0.18 | 77 | 1017.9 |
| 20260905174212 | 28 | 115 | 0.0 | 1.6 | 0.00 | 0.18 | 0.18 | 80 | 1017.9 |
| 20260905173709 | 27 | 85 | 0.0 | 0.0 | 0.00 | 0.18 | 0.18 | 78 | 1018.0 |
| 20260905173204 | 27 | 94 | 0.0 | 0.0 | 0.00 | 0.18 | 0.18 | 80 | 1017.5 |
| 20260905172703 | 27 | 117 | 0.0 | 0.0 | 0.00 | 0.18 | 0.18 | 82 | 1018.2 |
| 20260905172203 | 27 | 83 | 0.0 | 0.0 | 0.00 | 0.18 | 0.18 | 80 | 1018.4 |
| 20260905171659 | 27 | 106 | 0.0 | 0.0 | 0.00 | 0.18 | 0.18 | 81 | 1018.2 |
| 20260905171154 | 28 | 90 | 0.0 | 0.0 | 0.00 | 0.18 | 0.18 | 76 | 1018.4 |
| 20260905170653 | 28 | 78 | 0.0 | 0.0 | 0.00 | 0.18 | 0.18 | 71 | 1018.3 |
| 20260905170152 | 28 | 124 | 0.0 | 1.6 | 0.00 | 0.18 | 0.18 | 74 | 1018.1 |
| 20260905165652 | 27 | 115 | 0.0 | 1.6 | 0.00 | 0.18 | 0.18 | 73 | 1018.1 |
| 20260905165147 | 28 | 94 | 0.0 | 0.0 | 0.00 | 0.18 | 0.18 | 74 | 1018.1 |
| 20260905164642 | 30 | 75 | 0.0 | 0.0 | 0.00 | 0.18 | 0.18 | 68 | 1018.2 |
| 20260905164141 | 30 | 111 | 1.6 | 1.6 | 0.00 | 0.18 | 0.18 | 67 | 1018.4 |
| 20260905163637 | 30 | 14 | 0.0 | 1.6 | 0.00 | 0.18 | 0.18 | 62 | 1018.3 |
| 20260905163134 | 30 | 114 | 0.0 | 0.0 | 0.00 | 0.18 | 0.18 | 69 | 1018.5 |
| 20260905162630 | 28 | 144 | 0.0 | 0.0 | 0.00 | 0.18 | 0.18 | 65 | 1018.5 |
| 20260905162129 | 29 | 226 | 1.6 | 1.6 | 0.00 | 0.18 | 0.18 | 69 | 1018.7 |
| 20260905161628 | 30 | 142 | 0.0 | 1.6 | 0.00 | 0.18 | 0.18 | 71 | 1018.8 |
| 20260905161126 | 30 | 135 | 1.6 | 1.6 | 0.00 | 0.18 | 0.18 | 68 | 1018.8 |
| 20260905160621 | 31 | 92 | 0.0 | 0.0 | 0.00 | 0.18 | 0.18 | 65 | 1018.8 |
| 20260905160121 | 30 | 82 | 0.0 | 0.0 | 0.00 | 0.18 | 0.18 | 70 | 1018.8 |
| 20260905155620 | 30 | 139 | 0.0 | 3.2 | 0.00 | 0.18 | 0.18 | 74 | 1019.0 |
| 20260905155120 | 30 | 144 | 0.0 | 1.6 | 0.00 | 0.18 | 0.18 | 63 | 1018.7 |
| 20260905154620 | 30 | 77 | 0.0 | 8.0 | 0.00 | 0.18 | 0.18 | 66 | 1019.0 |
| 20260905154115 | 30 | 151 | 0.0 | 0.0 | 0.00 | 0.18 | 0.18 | 74 | 1019.0 |
| 20260905153611 | 30 | 79 | 0.0 | 0.0 | 0.00 | 0.18 | 0.18 | 72 | 1018.7 |
| 20260905153106 | 28 | 87 | 0.0 | 0.0 | 0.00 | 0.18 | 0.18 | 76 | 1018.8 |
| 20260905152601 | 29 | 78 | 0.0 | 1.6 | 1.07 | 0.18 | 0.18 | 75 | 1019.0 |
| 20260905152055 | 30 | 147 | 0.0 | 1.6 | 1.07 | 0.18 | 0.18 | 74 | 1018.8 |
| 20260905151551 | 31 | 334 | 0.0 | 0.0 | 0.00 | 0.00 | 0.00 | 70 | 1018.8 |
| 20260905151046 | 30 | 333 | 0.0 | 0.0 | 0.00 | 0.00 | 0.00 | 69 | 1018.8 |
| 20260905150541 | 31 | 333 | 0.0 | 0.0 | 0.00 | 0.00 | 0.00 | 73 | 1018.7 |
| 20260905150039 | 30 | 349 | 0.0 | 0.0 | 0.00 | 0.00 | 0.00 | 70 | 1018.7 |
| 20260905145532 | 30 | 335 | 0.0 | 0.0 | 0.00 | 0.00 | 0.00 | 69 | 1018.7 |
| 20260905145032 | 31 | 333 | 0.0 | 0.0 | 0.00 | 0.00 | 0.00 | 72 | 1018.7 |
| 20260905144527 | 30 | 333 | 0.0 | 0.0 | 0.00 | 0.00 | 0.00 | 68 | 1018.7 |
| 20260905144026 | 28 | 333 | 0.0 | 0.0 | 0.00 | 0.00 | 0.00 | 75 | 1018.8 |
| 20260905143526 | 30 | 333 | 0.0 | 0.0 | 0.00 | 0.00 | 0.00 | 72 | 1019.0 |
| 20260905143021 | 29 | 333 | 0.0 | 0.0 | 0.00 | 0.00 | 0.00 | 73 | 1018.8 |
| 20260905142519 | 29 | 333 | 0.0 | 0.0 | 0.00 | 0.00 | 0.00 | 72 | 1019.2 |
| 20260905142015 | 28 | 334 | 0.0 | 0.0 | 0.00 | 0.00 | 0.00 | 75 | 1019.1 |
| 20260905141515 | 28 | 334 | 0.0 | 0.0 | 0.00 | 0.00 | 0.00 | 73 | 1019.1 |
| 20260905141012 | 27 | 333 | 0.0 | 0.0 | 0.00 | 0.00 | 0.00 | 77 | 1019.2 |
| 20260905140506 | 26 | 333 | 0.0 | 0.0 | 0.00 | 0.00 | 0.00 | 81 | 1018.8 |
| 20260905140005 | 27 | 333 | 0.0 | 0.0 | 0.00 | 0.00 | 0.00 | 78 | 1019.1 |
| 20260905135501 | 26 | 334 | 0.0 | 0.0 | 0.00 | 0.00 | 0.00 | 80 | 1019.0 |
| 20260905134956 | 26 | 332 | 0.0 | 0.0 | 0.00 | 0.00 | 0.00 | 82 | 1019.2 |
| 20260905134455 | 26 | 334 | 0.0 | 0.0 | 0.00 | 0.00 | 0.00 | 82 | 1019.4 |
| 20260905133954 | 25 | 335 | 0.0 | 0.0 | 0.00 | 0.00 | 0.00 | 86 | 1019.2 |
| 20260905133450 | 24 | 334 | 0.0 | 0.0 | 0.00 | 0.00 | 0.00 | 87 | 1019.3 |
| 20260905132949 | 22 | 335 | 0.0 | 0.0 | 0.00 | 0.00 | 0.00 | 92 | 1019.1 |
| 20260905132444 | 22 | 335 | 0.0 | 0.0 | 0.00 | 0.00 | 0.00 | 92 | 1019.3 |
| 20260905131939 | 22 | 335 | 0.0 | 0.0 | 0.00 | 0.00 | 0.00 | 92 | 1019.3 |
| 20260905131435 | 21 | 336 | 0.0 | 0.0 | 0.00 | 0.00 | 0.00 | 92 | 1019.3 |
| 20260905130930 | 21 | 336 | 0.0 | 0.0 | 0.00 | 0.00 | 0.00 | 92 | 1019.5 |
| 20260905130429 | 21 | 336 | 0.0 | 0.0 | 0.00 | 0.00 | 0.00 | 92 | 1019.5 |
| 20260905125929 | 21 | 335 | 0.0 | 0.0 | 0.00 | 0.00 | 0.00 | 92 | 1019.6 |
| 20260905125424 | 20 | 335 | 0.0 | 0.0 | 0.00 | 0.00 | 0.00 | 92 | 1019.3 |
| 20260905124919 | 20 | 336 | 0.0 | 0.0 | 0.00 | 0.00 | 0.00 | 92 | 1019.3 |
| 20260905124416 | 20 | 336 | 0.0 | 0.0 | 0.00 | 0.00 | 0.00 | 92 | 1019.3 |
| 20260905123916 | 20 | 336 | 0.0 | 0.0 | 0.00 | 0.00 | 0.00 | 92 | 1019.5 |
| 20260905123413 | 20 | 336 | 0.0 | 0.0 | 0.00 | 0.00 | 0.00 | 92 | 1019.5 |
| 20260905122908 | 20 | 336 | 0.0 | 0.0 | 0.00 | 0.00 | 0.00 | 92 | 1019.5 |
| 20260905122407 | 19 | 336 | 0.0 | 0.0 | 0.00 | 0.00 | 0.00 | 92 | 1019.2 |
| 20260905121902 | 19 | 337 | 0.0 | 0.0 | 0.00 | 0.00 | 0.00 | 92 | 1019.3 |
| 20260905121358 | 19 | 336 | 0.0 | 0.0 | 0.00 | 0.00 | 0.00 | 92 | 1019.2 |
| 20260905120858 | 19 | 336 | 0.0 | 0.0 | 0.00 | 0.00 | 0.00 | 92 | 1019.1 |
| 20260905120357 | 19 | 336 | 0.0 | 0.0 | 0.00 | 0.00 | 0.00 | 92 | 1019.1 |
| 20260905115853 | 19 | 336 | 0.0 | 0.0 | 0.00 | 0.00 | 0.00 | 92 | 1019.1 |
| 20260905115352 | 18 | 336 | 0.0 | 0.0 | 0.00 | 0.00 | 0.00 | 92 | 1019.1 |
| 20260905114847 | 18 | 336 | 0.0 | 0.0 | 0.00 | 0.00 | 0.00 | 92 | 1019.1 |
| 20260905114346 | 18 | 337 | 0.0 | 0.0 | 0.00 | 0.00 | 0.00 | 92 | 1019.1 |
| 20260905113845 | 18 | 337 | 0.0 | 0.0 | 0.00 | 0.00 | 0.00 | 92 | 1019.0 |
| 20260905113341 | 18 | 336 | 0.0 | 0.0 | 0.00 | 0.00 | 0.00 | 92 | 1019.0 |
| 20260905112836 | 18 | 336 | 0.0 | 0.0 | 0.00 | 0.00 | 0.00 | 92 | 1019.0 |
| 20260905112332 | 18 | 336 | 0.0 | 0.0 | 0.00 | 0.00 | 0.00 | 92 | 1018.8 |
| 20260905111827 | 18 | 336 | 0.0 | 0.0 | 0.00 | 0.00 | 0.00 | 92 | 1019.0 |
| 20260905111327 | 18 | 336 | 0.0 | 0.0 | 0.00 | 0.00 | 0.00 | 92 | 1018.5 |
| 20260905110826 | 18 | 337 | 0.0 | 0.0 | 0.00 | 0.00 | 0.00 | 92 | 1018.7 |
| 20260905110325 | 18 | 336 | 0.0 | 0.0 | 0.00 | 0.00 | 0.00 | 92 | 1018.4 |
| 20260905105821 | 18 | 336 | 0.0 | 0.0 | 0.00 | 0.00 | 0.00 | 92 | 1018.4 |
| 20260905105320 | 18 | 336 | 0.0 | 0.0 | 0.00 | 0.00 | 0.00 | 92 | 1018.3 |
| 20260905104814 | 18 | 336 | 0.0 | 0.0 | 0.00 | 0.00 | 0.00 | 92 | 1018.3 |
| 20260905104312 | 18 | 335 | 0.0 | 0.0 | 0.00 | 0.00 | 0.00 | 92 | 1018.1 |
| 20260905103811 | 18 | 336 | 0.0 | 0.0 | 0.00 | 0.00 | 0.00 | 92 | 1018.2 |
| 20260905103306 | 18 | 336 | 0.0 | 0.0 | 0.00 | 0.00 | 0.00 | 92 | 1018.0 |
| 20260905102802 | 18 | 335 | 0.0 | 0.0 | 0.00 | 0.00 | 0.00 | 92 | 1018.1 |
| 20260905102259 | 18 | 336 | 0.0 | 0.0 | 0.00 | 0.00 | 0.00 | 92 | 1018.2 |
| 20260905101758 | 19 | 336 | 0.0 | 0.0 | 0.00 | 0.00 | 0.00 | 92 | 1018.2 |
| 20260905101257 | 19 | 336 | 0.0 | 0.0 | 0.00 | 0.00 | 0.00 | 92 | 1017.9 |
| 20260905100751 | 19 | 336 | 0.0 | 0.0 | 0.00 | 0.00 | 0.00 | 92 | 1017.7 |
| 20260905100248 | 19 | 336 | 0.0 | 0.0 | 0.00 | 0.00 | 0.00 | 92 | 1018.0 |
| 20260905095747 | 19 | 336 | 0.0 | 0.0 | 0.00 | 0.00 | 0.00 | 92 | 1018.0 |
| 20260905095246 | 19 | 336 | 0.0 | 0.0 | 0.00 | 0.00 | 0.00 | 92 | 1018.1 |
| 20260905094741 | 19 | 336 | 0.0 | 0.0 | 0.00 | 0.00 | 0.00 | 92 | 1018.0 |
| 20260905094237 | 19 | 336 | 0.0 | 0.0 | 0.00 | 0.00 | 0.00 | 92 | 1018.1 |
| 20260905093736 | 19 | 336 | 0.0 | 0.0 | 0.00 | 0.00 | 0.00 | 92 | 1018.0 |
| 20260905093232 | 19 | 336 | 0.0 | 0.0 | 0.00 | 0.00 | 0.00 | 92 | 1018.2 |
| 20260905092727 | 19 | 336 | 0.0 | 0.0 | 0.00 | 0.00 | 0.00 | 92 | 1018.1 |
| 20260905092223 | 19 | 336 | 0.0 | 0.0 | 0.00 | 0.00 | 0.00 | 92 | 1018.2 |
| 20260905091722 | 19 | 336 | 0.0 | 0.0 | 0.00 | 0.00 | 0.00 | 92 | 1018.1 |
| 20260905091217 | 19 | 336 | 0.0 | 0.0 | 0.00 | 0.00 | 0.00 | 92 | 1018.4 |
| 20260905090716 | 19 | 336 | 0.0 | 0.0 | 0.00 | 0.00 | 0.00 | 92 | 1018.4 |
| 20260905090213 | 19 | 336 | 0.0 | 0.0 | 0.00 | 0.00 | 0.00 | 92 | 1018.4 |
| 20260905085711 | 19 | 336 | 0.0 | 0.0 | 0.00 | 0.00 | 0.00 | 92 | 1018.1 |
| 20260905085207 | 20 | 336 | 0.0 | 0.0 | 0.00 | 0.00 | 0.00 | 92 | 1018.2 |
| 20260905084706 | 20 | 336 | 0.0 | 0.0 | 0.00 | 0.00 | 0.00 | 92 | 1018.3 |
| 20260905084201 | 20 | 336 | 0.0 | 0.0 | 0.00 | 0.00 | 0.00 | 92 | 1018.4 |
| 20260905083701 | 20 | 336 | 0.0 | 0.0 | 0.00 | 0.00 | 0.00 | 92 | 1018.5 |
| 20260905083157 | 20 | 336 | 0.0 | 0.0 | 0.00 | 0.00 | 0.00 | 92 | 1018.6 |
| 20260905082653 | 20 | 336 | 0.0 | 0.0 | 0.00 | 0.00 | 0.00 | 92 | 1018.6 |
| 20260905082149 | 20 | 336 | 0.0 | 0.0 | 0.00 | 0.00 | 0.00 | 92 | 1018.8 |
| 20260905081649 | 20 | 336 | 0.0 | 0.0 | 0.00 | 0.00 | 0.00 | 92 | 1018.8 |
| 20260905081144 | 20 | 336 | 0.0 | 0.0 | 0.00 | 0.00 | 0.00 | 92 | 1018.7 |
| 20260905080638 | 20 | 337 | 0.0 | 0.0 | 0.00 | 0.00 | 0.00 | 92 | 1019.0 |
| 20260905080138 | 20 | 336 | 0.0 | 0.0 | 0.00 | 0.00 | 0.00 | 92 | 1018.6 |
| 20260905075637 | 20 | 335 | 0.0 | 0.0 | 0.00 | 0.00 | 0.00 | 92 | 1018.7 |
| 20260905075136 | 20 | 335 | 0.0 | 0.0 | 0.00 | 0.00 | 0.00 | 92 | 1019.2 |
| 20260905074635 | 20 | 335 | 0.0 | 0.0 | 0.00 | 0.00 | 0.00 | 92 | 1019.1 |
| 20260905074131 | 20 | 335 | 0.0 | 0.0 | 0.00 | 0.00 | 0.00 | 92 | 1019.1 |
| 20260905073627 | 20 | 335 | 0.0 | 0.0 | 0.00 | 0.00 | 0.00 | 92 | 1019.1 |
| 20260905073128 | 20 | 335 | 0.0 | 0.0 | 0.00 | 0.00 | 0.00 | 92 | 1018.7 |
| 20260905072626 | 20 | 336 | 0.0 | 0.0 | 0.00 | 0.00 | 0.00 | 92 | 1018.8 |
| 20260905072122 | 20 | 336 | 0.0 | 0.0 | 0.00 | 0.00 | 0.00 | 92 | 1019.2 |
| 20260905071619 | 20 | 335 | 0.0 | 0.0 | 0.00 | 0.00 | 0.00 | 92 | 1018.7 |
| 20260905071114 | 20 | 335 | 0.0 | 0.0 | 0.00 | 0.00 | 0.00 | 92 | 1019.2 |
| 20260905070609 | 20 | 335 | 0.0 | 0.0 | 0.00 | 0.00 | 0.00 | 92 | 1019.0 |
| 20260905070105 | 20 | 335 | 0.0 | 0.0 | 0.00 | 0.00 | 0.00 | 92 | 1019.4 |
| 20260905065603 | 20 | 335 | 0.0 | 0.0 | 0.00 | 0.00 | 0.00 | 92 | 1019.2 |
| 20260905065059 | 20 | 335 | 0.0 | 0.0 | 0.00 | 0.00 | 0.00 | 92 | 1019.2 |
| 20260905064559 | 20 | 335 | 0.0 | 0.0 | 0.00 | 0.00 | 0.00 | 92 | 1019.3 |
| 20260905064055 | 20 | 335 | 0.0 | 0.0 | 0.00 | 0.00 | 0.00 | 92 | 1019.4 |
| 20260905063553 | 20 | 336 | 0.0 | 0.0 | 0.00 | 0.00 | 0.00 | 92 | 1019.5 |
| 20260905063050 | 20 | 336 | 0.0 | 0.0 | 0.00 | 0.00 | 0.00 | 92 | 1019.2 |
| 20260905062545 | 20 | 336 | 0.0 | 0.0 | 0.00 | 0.00 | 0.00 | 92 | 1019.3 |
| 20260905062044 | 20 | 336 | 0.0 | 0.0 | 0.00 | 0.00 | 0.00 | 92 | 1019.2 |
| 20260905061539 | 20 | 336 | 0.0 | 0.0 | 0.00 | 0.00 | 0.00 | 92 | 1019.4 |
| 20260905061038 | 20 | 337 | 0.0 | 0.0 | 0.00 | 0.00 | 0.00 | 92 | 1019.4 |
| 20260905060535 | 20 | 335 | 0.0 | 0.0 | 0.00 | 0.00 | 0.00 | 92 | 1019.2 |
| 20260905060030 | 20 | 335 | 0.0 | 0.0 | 0.00 | 0.00 | 0.00 | 92 | 1019.5 |
| 20260905055529 | 20 | 335 | 0.0 | 0.0 | 0.00 | 0.00 | 0.00 | 92 | 1019.7 |
| 20260905055024 | 20 | 335 | 0.0 | 0.0 | 0.00 | 0.00 | 0.00 | 92 | 1019.8 |
| 20260905054520 | 20 | 336 | 0.0 | 0.0 | 0.00 | 0.00 | 0.00 | 92 | 1019.9 |
| 20260905054015 | 20 | 335 | 0.0 | 0.0 | 0.00 | 0.00 | 0.00 | 92 | 1019.8 |
| 20260905053509 | 20 | 336 | 0.0 | 0.0 | 0.00 | 0.00 | 0.00 | 92 | 1019.9 |
| 20260905053005 | 20 | 336 | 0.0 | 0.0 | 0.00 | 0.00 | 0.00 | 92 | 1019.9 |